Regional Weather Roundup
Issued by NWS

Home | Current Version | Previous Version | Text Only | Print | Product List | Glossary Off
Versions: 1 2 3 4 5 6 7 8 9 10 11 12 13 14 15 16 17 18 19 20 21 22 23 24 25 26 27 28 29 30 31 32 33 34 35 36 37 38 39 40 41 42 43 44 45 46 47 48 49 50

000
ASUS45 KCYS 280110
RWRWY

WYOMING REGIONAL WEATHER ROUNDUP
NATIONAL WEATHER SERVICE CHEYENNE WY
700 PM MDT SUN JUL 27 2014

NOTE:  "FAIR" INDICATES FEW OR NO CLOUDS BELOW 12,000 FEET
WITH NO SIGNIFICANT WEATHER AND/OR OBSTRUCTIONS TO VISIBILITY.

WYZ001-280200-
YELLOWSTONE NATIONAL PARK

CITY           SKY/WX    TMP DP  RH WIND       PRES   REMARKS
LK YELLOWSTONE   N/A     74  37  26 CALM      30.46F
W YELLOWSTONE  NOT AVBL

$$
WYZ002>013-054>058-071-098>099-280200-
NORTHERN WYOMING

CITY           SKY/WX    TMP DP  RH WIND       PRES   REMARKS
JACKSON        SUNNY     84  28  13 NW7       30.31F
CODY           NOT AVBL
GREYBULL       SUNNY     91  23   8 VRB3      30.17F
WORLAND        MOSUNNY   88  31  13 N5        30.18F
SHERIDAN       SUNNY     84  43  23 NE5       30.25S
BUFFALO          N/A     81  37  20 NE10      30.32S
GILLETTE       SUNNY     81  41  24 NE12      30.29R
HULETT         FAIR      77  43  29 MISG      30.32
NEWCASTLE      FAIR      81  36  19 N6        30.28

$$
WYZ014>020-022>026-101>103-280200-
CENTRAL WYOMING

CITY           SKY/WX    TMP DP  RH WIND       PRES   REMARKS
BIG PINEY      SUNNY     85  22  10 NE10      30.37S
PINEDALE       PTCLDY    79  27  14 NW7       30.38F
DUBOIS         FAIR      77  28  16 SE12G21   30.39S
LANDER         SUNNY     86  25  11 N6        30.26F
RIVERTON       MOSUNNY   86  21   9 NE8       30.28F
CASPER         SUNNY     84  37  18 E12       30.29F
DOUGLAS        MOSUNNY   83  48  29 SE12      30.30S

$$
WYZ021-027>030-104>119-280200-
SOUTHERN WYOMING

CITY           SKY/WX    TMP DP  RH WIND       PRES   REMARKS
EVANSTON       MOSUNNY   86  25  11 E8        30.34F
KEMMERER       CLEAR    N/A N/A N/A W9        30.36F
FORT BRIDGER   FAIR      87  18   8 CALM      30.37F
ROCK SPRINGS   SUNNY     85  21   9 CALM      30.32F
DIXON          FAIR      87  27  11 NW12      30.32S
RAWLINS        SUNNY     84  31  14 NE13G20   30.35S
SARATOGA       MOCLDY    82  43  24 E16       30.36S
LARAMIE        MOSUNNY   67  56  67 SE16G24   30.44R
CHEYENNE       PTSUNNY   75  51  43 SE14      30.37F
TORRINGTON     SUNNY     81  53  37 SE8       30.25S
PINE BLUFFS    FAIR      77  46  33 SE9       30.33S

$$


USA.gov is the U.S. government's official web portal to all federal, state and local government web resources and services.